Location: Plainartige
(45.6866°N, 1.7993°E)
Time: 14:10:13
(UTC+00:00)

Cosmos 2360 Rocket - Pass Details

Date: 03 March 2021
Orbit: 832 x 846 km, 71.0° (Epoch: 16 April)

Event Time Altitude Azimuth Distance (km) Brightness Sun altitude
Rises 18:36:15 0° 188° (S) 3,373 5.4 -10.2°
Reaches altitude 10° 18:38:44 10° 183° (S) 2,445 4.6 -10.6°
Maximum altitude 18:44:08 50° 109° (ESE) 1,060 2.4 -11.6°
Drops below altitude 10° 18:49:35 10° 35° (NE) 2,470 4.3 -12.5°
Sets 18:52:06 0° 31° (NNE) 3,411 5.1 -12.9°
